Location: Muck Cross
(36.7179°N, 78.3678°W)
Time: 13:46:46
(UTC+00:00)

Tiros 1 despin weight - Visible Passes

Search period start: 30 March 2023 00:00
Search period end: 09 April 2023 00:00
Orbit: 588 x 634 km, 48.2° (Epoch: 29 March)

Date Brightness Start Highest point End Pass type
(mag) Time Alt. Az. Time Alt. Az. Time Alt. Az.
30 Mar ? 01:06:57 10° W 01:10:55 33° NNW 01:14:11 14° NE visible
30 Mar ? 02:50:13 10° NW 02:51:07 13° NW 02:51:07 13° NW visible
31 Mar ? 01:21:50 10° WNW 01:25:24 24° NNW 01:28:04 14° NNE visible
31 Mar ? 03:04:50 10° NW 03:05:00 11° NW 03:05:00 11° NW visible
01 Apr ? 01:36:47 10° NW 01:39:59 19° N 01:41:50 15° NNE visible
02 Apr ? 00:08:20 10° W 00:12:11 30° NNW 00:16:04 10° NE visible
02 Apr ? 01:51:34 10° NW 01:54:36 18° N 01:55:30 17° NNE visible
03 Apr ? 00:23:13 10° WNW 00:26:41 22° NNW 00:30:08 10° NE visible
03 Apr ? 02:06:05 10° NW 02:09:05 19° N 02:09:05 19° N visible
04 Apr ? 00:38:07 10° NW 00:41:14 19° N 00:44:22 10° NE visible
04 Apr ? 02:20:19 10° NW 02:22:38 20° N 02:22:38 20° N visible
05 Apr ? 00:52:49 10° NW 00:55:50 18° N 00:58:52 10° NE visible
05 Apr ? 02:34:22 10° NW 02:36:09 20° NNW 02:36:09 20° NNW visible
06 Apr ? 01:07:13 10° NW 01:10:25 19° N 01:12:44 14° NE visible
06 Apr ? 02:48:23 10° NW 02:49:38 18° NW 02:49:38 18° NW visible
07 Apr ? 01:21:23 10° NW 01:24:56 24° NNE 01:26:13 21° NE visible
07 Apr ? 03:02:25 10° NW 03:03:07 14° NW 03:03:07 14° NW visible
08 Apr ? 01:35:23 10° NW 01:39:21 32° NNE 01:39:42 32° NNE visible
08 Apr ? 03:16:36 10° WNW 03:16:36 10° WNW 03:16:36 10° WNW visible
